TimeCST,TemperatureF,Dew PointF,Humidity,Sea Level PressureIn,VisibilityMPH,Wind Direction,Wind SpeedMPH,Gust SpeedMPH,PrecipitationIn,Events,Conditions,WindDirDegrees,DateUTC
12:15 AM,5.0,5.0,100,29.80,10.0,Calm,Calm,-,N/A,,Partly Cloudy,0,2013-01-28 06:15:00
12:35 AM,5.0,5.0,100,29.80,10.0,Calm,Calm,-,N/A,,Mostly Cloudy,0,2013-01-28 06:35:00
12:55 AM,6.8,5.0,92,29.80,10.0,Calm,Calm,-,N/A,,Mostly Cloudy,0,2013-01-28 06:55:00
1:15 AM,6.8,5.0,92,29.80,10.0,Calm,Calm,-,N/A,,Scattered Clouds,0,2013-01-28 07:15:00
1:35 AM,6.8,5.0,92,29.80,10.0,WNW,4.6,-,N/A,,Clear,290,2013-01-28 07:35:00
1:55 AM,5.0,5.0,100,29.79,10.0,Calm,Calm,-,N/A,,Scattered Clouds,0,2013-01-28 07:55:00
2:15 AM,5.0,3.2,92,29.79,10.0,WNW,3.5,-,N/A,,Scattered Clouds,290,2013-01-28 08:15:00
2:35 AM,5.0,3.2,92,29.79,10.0,Calm,Calm,-,N/A,,Scattered Clouds,0,2013-01-28 08:35:00
2:55 AM,5.0,3.2,92,29.80,10.0,Calm,Calm,-,N/A,,Clear,0,2013-01-28 08:55:00
3:15 AM,5.0,5.0,100,29.79,10.0,Calm,Calm,-,N/A,,Clear,0,2013-01-28 09:15:00
3:35 AM,5.0,5.0,100,29.79,10.0,Calm,Calm,-,N/A,,Partly Cloudy,0,2013-01-28 09:35:00
3:55 AM,6.8,5.0,92,29.77,10.0,Calm,Calm,-,N/A,,Mostly Cloudy,0,2013-01-28 09:55:00
4:15 AM,6.8,5.0,92,29.76,10.0,SE,3.5,-,N/A,,Scattered Clouds,140,2013-01-28 10:15:00
4:35 AM,8.6,6.8,92,29.77,10.0,Calm,Calm,-,N/A,,Scattered Clouds,0,2013-01-28 10:35:00
4:55 AM,8.6,6.8,92,29.77,10.0,West,3.5,-,N/A,,Mostly Cloudy,270,2013-01-28 10:55:00
5:15 AM,10.4,8.6,92,29.79,10.0,West,3.5,-,N/A,,Overcast,270,2013-01-28 11:15:00
5:35 AM,10.4,10.4,100,29.79,10.0,ESE,3.5,-,N/A,,Overcast,110,2013-01-28 11:35:00
5:55 AM,10.4,8.6,92,29.79,10.0,South,3.5,-,N/A,,Overcast,170,2013-01-28 11:55:00
6:15 AM,10.4,10.4,100,29.78,-9999.0,Calm,Calm,-,0.21,Snow,Heavy Snow,0,2013-01-28 12:15:00
6:35 AM,10.4,10.4,100,29.77,9.0,Calm,Calm,-,0.30,Snow,Light Snow,0,2013-01-28 12:35:00
6:55 AM,12.2,12.2,100,29.78,10.0,Calm,Calm,-,0.30,,Overcast,0,2013-01-28 12:55:00
7:15 AM,12.2,12.2,100,29.78,10.0,Calm,Calm,-,N/A,,Overcast,0,2013-01-28 13:15:00
7:35 AM,14.0,14.0,100,29.77,7.0,Calm,Calm,-,N/A,,Overcast,0,2013-01-28 13:35:00
7:55 AM,15.8,15.8,100,29.76,8.0,WNW,3.5,-,N/A,,Overcast,300,2013-01-28 13:55:00
8:15 AM,17.6,15.8,93,29.76,7.0,West,4.6,-,N/A,,Overcast,270,2013-01-28 14:15:00
8:35 AM,17.6,17.6,100,29.77,9.0,Calm,Calm,-,N/A,,Overcast,0,2013-01-28 14:35:00
8:55 AM,17.6,15.8,93,29.77,10.0,Calm,Calm,-,N/A,,Overcast,0,2013-01-28 14:55:00
9:15 AM,17.6,17.6,100,29.78,10.0,SW,4.6,-,N/A,,Overcast,220,2013-01-28 15:15:00
9:35 AM,19.4,15.8,86,29.77,-9999.0,WNW,3.5,-,N/A,Snow,Heavy Snow,290,2013-01-28 15:35:00
9:55 AM,19.4,17.6,93,29.77,2.5,Calm,Calm,-,N/A,Snow,Light Snow,0,2013-01-28 15:55:00
10:15 AM,19.4,17.6,93,29.78,7.0,Calm,Calm,-,N/A,Snow,Light Snow,0,2013-01-28 16:15:00
10:35 AM,19.4,17.6,93,29.76,10.0,West,5.8,-,N/A,,Overcast,280,2013-01-28 16:35:00
11:15 AM,21.2,17.6,86,29.79,10.0,West,4.6,-,N/A,,Overcast,280,2013-01-28 17:15:00
11:35 AM,23.0,17.6,80,29.78,10.0,West,3.5,-,N/A,,Overcast,260,2013-01-28 17:35:00
11:55 AM,23.0,19.4,86,29.76,10.0,Calm,Calm,-,N/A,,Overcast,0,2013-01-28 17:55:00
12:15 PM,23.0,19.4,86,29.77,10.0,West,4.6,-,N/A,,Mostly Cloudy,270,2013-01-28 18:15:00
12:35 PM,23.0,19.4,86,29.76,10.0,WSW,3.5,-,N/A,,Clear,250,2013-01-28 18:35:00
12:55 PM,23.0,19.4,86,29.77,-9999.0,West,6.9,-,N/A,,Unknown,280,2013-01-28 18:55:00
1:15 PM,24.8,19.4,80,29.77,10.0,West,4.6,-,N/A,,Scattered Clouds,260,2013-01-28 19:15:00
1:35 PM,24.8,19.4,80,29.77,-9999.0,Calm,Calm,-,N/A,,Overcast,0,2013-01-28 19:35:00
1:55 PM,26.6,19.4,74,29.74,10.0,Calm,Calm,-,N/A,,Scattered Clouds,0,2013-01-28 19:55:00
2:15 PM,24.8,19.4,80,29.76,10.0,Calm,Calm,-,N/A,,Clear,0,2013-01-28 20:15:00
2:35 PM,24.8,19.4,80,29.76,10.0,Calm,Calm,-,N/A,,Clear,0,2013-01-28 20:35:00
2:55 PM,24.8,19.4,80,29.76,10.0,SW,4.6,-,N/A,,Clear,230,2013-01-28 20:55:00
3:15 PM,24.8,19.4,80,29.77,-9999.0,WSW,3.5,-,N/A,,Clear,240,2013-01-28 21:15:00
3:35 PM,24.8,19.4,80,29.77,-9999.0,West,3.5,-,N/A,,Clear,260,2013-01-28 21:35:00
3:55 PM,23.0,19.4,86,29.77,10.0,West,5.8,-,N/A,,Clear,280,2013-01-28 21:55:00
4:15 PM,23.0,19.4,86,29.76,10.0,WSW,3.5,-,N/A,,Clear,250,2013-01-28 22:15:00
4:35 PM,23.0,19.4,86,29.75,-9999.0,West,3.5,-,N/A,,Unknown,260,2013-01-28 22:35:00
4:55 PM,23.0,19.4,86,29.75,10.0,West,6.9,-,N/A,,Clear,270,2013-01-28 22:55:00
5:15 PM,21.2,21.2,100,29.75,10.0,West,5.8,-,N/A,,Clear,270,2013-01-28 23:15:00
5:35 PM,19.4,19.4,100,29.76,10.0,WSW,5.8,-,N/A,,Clear,250,2013-01-28 23:35:00
5:55 PM,19.4,19.4,100,29.76,10.0,West,5.8,-,N/A,,Partly Cloudy,260,2013-01-28 23:55:00
6:15 PM,19.4,19.4,100,29.77,10.0,West,3.5,-,N/A,,Mostly Cloudy,270,2013-01-29 00:15:00
6:35 PM,19.4,19.4,100,29.77,10.0,Calm,Calm,-,N/A,,Overcast,0,2013-01-29 00:35:00
6:55 PM,19.4,19.4,100,29.76,10.0,Calm,Calm,-,N/A,,Overcast,0,2013-01-29 00:55:00
7:15 PM,19.4,19.4,100,29.77,7.0,WSW,4.6,-,N/A,,Overcast,250,2013-01-29 01:15:00
7:35 PM,21.2,21.2,100,29.77,8.0,West,4.6,-,N/A,,Overcast,260,2013-01-29 01:35:00
7:55 PM,23.0,23.0,100,29.78,10.0,West,4.6,-,N/A,,Overcast,270,2013-01-29 01:55:00
8:15 PM,21.2,21.2,100,29.77,-9999.0,West,5.8,-,N/A,,Overcast,260,2013-01-29 02:15:00
8:35 PM,21.2,21.2,100,29.77,10.0,West,6.9,-,N/A,,Overcast,270,2013-01-29 02:35:00
8:55 PM,21.2,21.2,100,29.78,10.0,West,6.9,-,N/A,,Overcast,280,2013-01-29 02:55:00
9:15 PM,23.0,23.0,100,29.77,10.0,WNW,6.9,-,N/A,,Overcast,300,2013-01-29 03:15:00
9:35 PM,23.0,23.0,100,29.75,10.0,NW,5.8,-,N/A,,Overcast,320,2013-01-29 03:35:00
9:55 PM,23.0,23.0,100,29.75,10.0,NW,8.1,-,N/A,,Overcast,320,2013-01-29 03:55:00
10:15 PM,21.2,21.2,100,29.76,10.0,NW,10.4,-,N/A,,Overcast,310,2013-01-29 04:15:00
10:35 PM,19.4,19.4,100,29.75,9.0,NNW,8.1,-,N/A,,Scattered Clouds,330,2013-01-29 04:35:00
10:55 PM,19.4,19.4,100,29.73,8.0,NNW,8.1,-,N/A,,Clear,340,2013-01-29 04:55:00
11:15 PM,15.8,15.8,100,29.75,7.0,NW,5.8,-,N/A,,Clear,320,2013-01-29 05:15:00
11:35 PM,14.0,14.0,100,29.74,7.0,NW,4.6,-,N/A,,Clear,310,2013-01-29 05:35:00
11:55 PM,14.0,14.0,100,29.74,10.0,Calm,Calm,-,N/A,,Scattered Clouds,0,2013-01-29 05:55:00